Location: Albany
(35.0170°S, 117.8920°E)
Time: 18:51:20
(UTC+08:00)

SR - Pass Details

Date: 27 January 2021
Orbit: 573 x 882 km, 66.7° (Epoch: 25 February)

Event Time Altitude Azimuth Distance (km) Brightness Sun altitude
Rises 00:34:55 0° 196° (SSW) 2,867 ? -36.3°
Reaches altitude 10° 00:37:27 10° 184° (S) 1,933 ? -36.3°
Enters shadow 00:38:28 15° 176° (S) 1,598 ? -36.3°
